Location: Unnamed
(51.5169°N, 0.1311°W)
Time: 07:22:55
(UTC+01:00)

Vanguard 1 - Pass Details

Date: 09 August 2024
Orbit: 649 x 3825 km, 34.2° (Epoch: 16 September)

Event Time Altitude Azimuth Distance (km) Brightness Sun altitude
Rises 23:09:39 0° 211° (SSW) 4,425 13.1 -18.4°
Reaches altitude 10° 23:12:46 10° 198° (SSW) 3,827 12.7 -18.6°
Maximum altitude 23:21:04 27° 146° (SE) 3,609 12.3 -19.2°
Drops below altitude 10° 23:33:43 10° 99° (E) 5,991 13.7 -20.0°
Sets 23:40:19 0° 90° (E) 7,462 14.3 -20.4°
